Regional Weather Roundup
Issued by NWS Sterling, VA

Home | Current Version | Previous Version | Graphics & Text | Print | Product List | Glossary On
Versions: 1 2 3 4 5 6 7 8 9 10 11 12 13 14 15 16 17 18 19 20 21 22 23 24 25 26 27 28 29 30 31 32 33 34 35 36 37 38 39 40 41 42 43 44 45 46 47 48 49 50
000
ASUS41 KLWX 192010
RWRLWX

REGIONAL WEATHER ROUNDUP
NATIONAL WEATHER SERVICE BALTIMORE MD/WASHINGTON DC
400 PM EDT TUE AUG 19 2014

Note: "FAIR" indicates few or no clouds below 12,000 feet
with no significant weather and/or obstructions to visibility.
 TC=TEMPERATURE CELSIUS

 * =Non NWS site. Station does not report precipitation (e.g. rain,
    snow, etc.), thunder, or fog.

DCZ001-MDZ009-015-VAZ040>042-051-053>054-192100-
WASHINGTON METRO
  /KDAA//-FT BELVOIR

CITY           SKY/WX    TMP DP  RH WIND       PRES   REMARKS
WASHINGTON NAT PTSUNNY   85  66  53 SE10      29.86F
DULLES         PTSUNNY   82  68  62 VRB6      29.86F
ANDREWS AFB    MOSUNNY   81  69  65 E9        29.86F
QUANTICO       PTSUNNY   80  70  71 E3        29.86S
COLLEGE PARK*  PTSUNNY   82  68  61 E6        29.86S
LEESBURG*      PTSUNNY   82  70  65 E8        29.87S
MANASSAS*      PTSUNNY   82  72  69 SE8       29.85F
GAITHERSBURG*  PTSUNNY   81  70  69 E6        29.90F

$$

MDZ006>007-011-014-192100-
BALTIMORE METRO

CITY           SKY/WX    TMP DP  RH WIND       PRES   REMARKS
BWI AIRPORT    PTSUNNY   81  64  56 E8        29.86F
MD SCIENCE CTR   N/A     82  63  52 MISG      29.86F
MARTIN STATE   PTSUNNY   82  68  61 E7        29.88F
ANNAPOLIS      MOSUNNY   80  63  55 E8        29.86F
FORT MEADE*    MOSUNNY   81  64  57 E9        29.89S

$$

MDZ012-015-019>023-192100-
MARYLAND EASTERN SHORE

CITY           SKY/WX    TMP DP  RH WIND       PRES   REMARKS
OCEAN CITY     CLOUDY    77  68  73 NE9       29.87R
SALISBURY      CLOUDY    80  68  66 E9        29.86S
BAY BRIDGE AP*   N/A     82  59  44 E8        29.86F
CAMBRIDGE*     MOSUNNY   82  66  57 E7        29.85S
EASTON*        PTSUNNY   84  66  54 E8        29.90S

$$

MDZ017>025-192100-
SOUTHERN MARYLAND

CITY           SKY/WX    TMP DP  RH WIND       PRES   REMARKS
PATUXENT RIVER PTSUNNY   79  70  74 E5        29.85S
ST INIGOES     PTSUNNY   80  69  69 NE6       29.84S
LEONARDTOWN*   PTSUNNY   81  66  61 NE5       29.87S

$$

MDZ003>005-192100-
NORTH CENTRAL MARYLAND

CITY           SKY/WX    TMP DP  RH WIND       PRES   REMARKS
FREDERICK*     PTSUNNY   81  72  74 VRB3      29.88F
HAGERSTOWN APT PTSUNNY   80  66  62 VRB5      29.87F
WESTMINSTER*   PTSUNNY   82  68  61 E6        29.88F

$$

MDZ501>502-192100-
WESTERN MARYLAND

CITY           SKY/WX    TMP DP  RH WIND       PRES   REMARKS
OAKLAND*       MOSUNNY   73  70  88 NE3       29.96F
CUMBERLAND*    MOSUNNY   84  64  51 CALM      29.90F

$$

VAZ025>031-192100-
SHENANDOAH VALLEY

CITY           SKY/WX    TMP DP  RH WIND       PRES   REMARKS
WINCHESTER*    MOSUNNY   82  68  61 E8        29.87F
STAUNTON*      SUNNY     84  64  51 E5        29.88F

$$

WVZ021-048>050-054>055-192100-
EASTERN WEST VIRGINIA PANHANDLE

CITY           SKY/WX    TMP DP  RH WIND       PRES   REMARKS
MARTINSBURG    PTSUNNY   82  66  58 VRB6      29.87F
PETERSBURG*    NOT AVBL

$$

VAZ036>039-050-192100-
CENTRAL FOOTHILLS

CITY           SKY/WX    TMP DP  RH WIND       PRES   REMARKS
CHARLOTTESVILL MOSUNNY   82  68  62 VRB5      29.85F
ORANGE*        SUNNY     82  66  57 NE5       29.87S

$$

VAZ055>057-192100-
NORTH AND CENTRAL PIEDMONT

CITY           SKY/WX    TMP DP  RH WIND       PRES   REMARKS
FREDERICKSBRG* PTSUNNY   80  72  76 E6        29.85R
STAFFORD*      MOSUNNY   81  72  74 E9        29.89S

$$

NCZ024-NYZ072-PAZ021-071-VAZ022-071-192100-
OTHER REGIONAL OBSERVATIONS

CITY           SKY/WX    TMP DP  RH WIND       PRES   REMARKS
NEW YORK CITY  MOSUNNY   80  63  55 CALM      29.92S
PHILADELPHIA   PTSUNNY   85  62  46 SE3       29.86F
PITTSBURGH     MOSUNNY   84  61  45 SW5       29.86F
ROANOKE        CLOUDY    77  71  82 NW5       29.90F
RICHMOND       PTSUNNY   82  71  69 E8        29.83F
RALEIGH        MOSUNNY   84  69  60 NE7       29.83F

$$

ANZ530>537-192100-
MARINE OBSERVATIONS

STATION/POSITION TIME  TEMP    WIND        PRES
                       AIR SEA DIR/SP/G
                 (UTC) (F)     (DEG/KT/KT) (MB)
THOMAS PT LIGHT  2000   80 79   80/  9/  9 1011.6F
BALT KEY BRIDGE  2000   78     130/  6/  7 1011.0F
COVE POINT       2000   79      30/  5/  6 1010.6F
LEWISETTA        2000   78 79   80/  5/  6 1010.3F
SOLOMONS ISLAND  2000      80                N/A
PINEY POINT      2000           80/  5/  7   N/A

$$



USA.gov is the U.S. government's official web portal to all federal, state and local government web resources and services.